Location: Bourg-d�Oueil
(42.8588°N, 0.4991°E)
Time: 15:16:09
(UTC+00:00)

Terra - Pass Details

Date: 16 June 2021
Orbit: 701 x 703 km, 98.2° (Epoch: 01 August)

Event Time Altitude Azimuth Distance (km) Brightness Sun altitude
Exits shadow 22:44:45 22° 229° (SW) 1,506 3.3 -21.6°
Maximum altitude 22:46:32 28° 265° (W) 1,302 3.3 -21.7°
Drops below altitude 10° 22:50:39 10° 324° (NW) 2,179 5.4 -21.9°
Sets 22:53:12 0° 336° (NNW) 3,102 6.6 -22.1°
